N0KTA-2 Weather Reports


Display with metric or nautical units.
time (UTC)temp
F
wind
direction
speed
MPH
gust
MPH
rain 1hr
in
rain 24hr
in
rain mn
in
humidity
%
barometer
mb
20260506084104 46 34 3.0 7.0 0.00 0.02 0.00 80 1014.0
20260506083103 46 31 3.0 6.0 0.00 0.02 0.00 79 1013.6
20260506082104 46 21 5.0 10.0 0.00 0.02 0.00 79 1014.0
20260506081103 46 21 6.0 10.0 0.00 0.02 0.00 79 1013.8
20260506080104 46 32 2.0 3.0 0.00 0.02 0.00 79 1013.8
20260506072925 46 22 6.0 15.0 0.00 0.02 0.00 80 1012.3
20260506071925 46 17 7.0 9.0 0.00 0.02 0.00 80 1012.3
20260506070924 46 16 6.0 15.0 0.00 0.02 0.00 80 1011.8
20260506061925 50 31 5.0 7.0 0.00 0.02 0.00 69 1012.2
20260506060926 50 24 3.0 7.0 0.00 0.02 0.00 66 1011.7
20260506050924 51 18 5.0 9.0 0.00 0.02 0.00 69 1011.5
20260506044925 51 18 5.0 7.0 0.00 0.02 0.02 71 1011.5
20260506043926 51 26 3.0 3.0 0.00 0.02 0.02 71 1010.9
20260506042925 51 28 7.0 13.0 0.00 0.02 0.02 71 1011.0
20260506041926 51 28 3.0 7.0 0.00 0.02 0.02 74 1011.2
20260506040925 51 17 3.0 7.0 0.01 0.02 0.02 75 1011.2
20260506035926 50 25 2.0 6.0 0.01 0.02 0.02 76 1011.5
20260506034924 50 18 3.0 5.0 0.01 0.02 0.02 76 1011.7
20260506033926 50 35 3.0 5.0 0.01 0.02 0.02 76 1011.6
20260506032924 50 35 1.0 3.0 0.01 0.02 0.02 77 1011.7
20260506031925 50 5 1.0 2.0 0.02 0.02 0.02 78 1011.4
20260506030926 50 29 3.0 6.0 0.01 0.01 0.01 78 1011.0
20260506025925 50 15 2.0 3.0 0.01 0.01 0.01 78 1011.2
20260506024926 50 15 2.0 5.0 0.01 0.01 0.01 78 1011.1
20260506023925 50 345 2.0 3.0 0.01 0.01 0.01 79 1011.1
20260506022924 51 351 0.0 1.0 0.01 0.01 0.01 79 1010.9
20260506021925 51 26 1.0 2.0 0.00 0.00 0.00 78 1010.7
20260506020924 51 40 0.0 0.0 0.00 0.00 0.00 76 1010.5
20260506015925 51 59 0.0 0.0 0.00 0.00 0.00 76 1010.4
20260506014924 52 81 0.0 0.0 0.00 0.00 0.00 75 1010.2
20260506013925 52 83 1.0 1.0 0.00 0.00 0.00 73 1009.9
20260506012924 52 94 0.0 1.0 0.00 0.00 0.00 73 1009.9
20260506011925 52 28 0.0 2.0 0.00 0.00 0.00 72 1009.7
20260506010924 52 37 0.0 1.0 0.00 0.00 0.00 72 1009.8
20260506005925 52 77 0.0 2.0 0.00 0.00 0.00 71 1009.7
20260506004924 52 89 0.0 0.0 0.00 0.00 0.00 71 1009.3
20260506003925 52 72 0.0 0.0 0.00 0.00 0.00 70 1009.3
20260506002926 52 123 1.0 3.0 0.00 0.00 0.00 70 1009.3
20260506001925 52 48 0.0 2.0 0.00 0.00 0.00 69 1009.2
20260506000925 52 55 1.0 3.0 0.00 0.00 0.00 69 1009.1
20260505235924 52 39 1.0 2.0 0.00 0.00 0.00 68 1008.8
20260505234926 52 18 2.0 3.0 0.00 0.00 0.00 68 1009.0
20260505233925 52 49 2.0 6.0 0.00 0.00 0.00 68 1008.7
20260505232924 52 37 2.0 6.0 0.00 0.00 0.00 67 1008.7
20260505231925 52 34 2.0 3.0 0.00 0.00 0.00 66 1008.7
20260505230924 52 33 5.0 10.0 0.00 0.00 0.00 65 1008.7
20260505225924 52 46 5.0 7.0 0.00 0.00 0.00 64 1008.6
20260505224925 52 23 3.0 12.0 0.00 0.00 0.00 65 1008.3
20260505223925 52 29 3.0 7.0 0.00 0.00 0.00 67 1008.7
20260505222925 52 20 3.0 5.0 0.00 0.00 0.00 66 1008.4
20260505221924 52 44 6.0 6.0 0.00 0.00 0.00 65 1008.4
20260505220925 52 28 3.0 7.0 0.00 0.00 0.00 64 1008.2
20260505215926 52 55 5.0 7.0 0.00 0.00 0.00 64 1008.6
20260505214925 52 47 5.0 9.0 0.00 0.00 0.00 63 1008.6
20260505213926 52 15 6.0 7.0 0.00 0.00 0.00 65 1008.4
20260505212925 52 31 9.0 14.0 0.00 0.00 0.00 65 1008.7
20260505211925 52 24 6.0 10.0 0.00 0.00 0.00 65 1008.6
20260505210925 52 26 7.0 10.0 0.00 0.00 0.00 65 1008.7
20260505205925 52 46 7.0 12.0 0.00 0.00 0.00 64 1008.6
20260505204924 52 32 10.0 12.0 0.00 0.00 0.00 64 1008.7
20260505203925 52 27 9.0 14.0 0.00 0.00 0.00 63 1008.6
20260505202924 53 3 7.0 13.0 0.00 0.00 0.00 63 1008.5
20260505201925 53 34 5.0 10.0 0.00 0.00 0.00 62 1008.5
20260505200924 53 43 9.0 17.0 0.00 0.00 0.00 63 1008.5
20260505195925 53 40 9.0 16.0 0.00 0.00 0.00 63 1008.2
20260505194924 53 35 5.0 9.0 0.00 0.00 0.00 65 1008.2
20260505193924 53 45 2.0 5.0 0.00 0.00 0.00 66 1008.2
20260505192925 53 47 5.0 12.0 0.00 0.00 0.00 65 1008.1
20260505191924 53 47 6.0 6.0 0.00 0.00 0.00 64 1008.1
20260505190925 53 16 6.0 7.0 0.00 0.00 0.00 63 1008.0
20260505185926 53 35 6.0 15.0 0.00 0.00 0.00 61 1007.6
20260505184924 53 37 10.0 17.0 0.00 0.00 0.00 62 1007.5
20260505183925 53 27 6.0 10.0 0.00 0.00 0.00 61 1007.3
20260505182924 53 45 7.0 20.0 0.00 0.00 0.00 60 1007.4
20260505181925 54 31 7.0 12.0 0.00 0.00 0.00 61 1007.4
20260505180924 54 32 5.0 13.0 0.00 0.00 0.00 61 1007.5
20260505175925 53 25 7.0 13.0 0.00 0.00 0.00 60 1007.5
20260505174926 53 48 6.0 16.0 0.00 0.00 0.00 60 1007.5
20260505173924 53 33 13.0 20.0 0.00 0.00 0.00 58 1007.4
20260505172925 54 33 8.0 14.0 0.00 0.00 0.00 59 1007.4
20260505171925 54 33 6.0 14.0 0.00 0.00 0.00 60 1007.2
20260505170926 54 45 7.0 12.0 0.00 0.00 0.00 59 1007.4
20260505165925 54 33 6.0 15.0 0.00 0.00 0.00 59 1007.3
20260505164925 54 24 8.0 14.0 0.00 0.00 0.00 60 1007.2
20260505163924 54 22 7.0 13.0 0.00 0.00 0.00 60 1007.1
20260505162925 53 77 6.0 12.0 0.00 0.00 0.00 60 1006.9
20260505161925 53 31 9.0 13.0 0.00 0.00 0.00 59 1006.9
20260505160924 53 28 8.0 17.0 0.00 0.00 0.00 61 1006.9
20260505152924 53 38 8.0 17.0 0.00 0.00 0.00 60 1005.7
20260505151925 53 44 5.0 6.0 0.00 0.00 0.00 61 1005.7
20260505150924 53 50 6.0 7.0 0.00 0.00 0.00 61 1005.6
20260505124924 54 35 7.0 13.0 0.00 0.00 0.00 60 1003.9
20260505123924 54 44 9.0 16.0 0.00 0.00 0.00 60 1003.7
20260505122925 54 30 10.0 20.0 0.00 0.00 0.00 59 1003.4
20260505121925 54 42 9.0 13.0 0.00 0.00 0.00 59 1003.3
20260505120925 54 14 6.0 14.0 0.00 0.00 0.00 60 1003.0
20260505115925 54 40 8.0 14.0 0.00 0.00 0.00 60 1002.7
20260505114924 54 29 9.0 16.0 0.00 0.00 0.00 61 1002.4
20260505113924 55 44 9.0 20.0 0.00 0.00 0.00 61 1002.1
20260505112925 55 29 6.0 17.0 0.00 0.00 0.00 60 1001.9
20260505111924 55 54 8.0 15.0 0.00 0.00 0.00 60 1001.6
20260505110924 55 38 9.0 13.0 0.00 0.00 0.00 60 1001.6
20260505101925 56 44 9.0 16.0 0.00 0.00 0.00 61 1000.9
20260505100924 56 42 8.0 16.0 0.00 0.00 0.00 62 1000.8
20260505095925 56 33 10.0 16.0 0.00 0.00 0.00 63 1000.9
20260505094924 56 26 10.0 22.0 0.00 0.00 0.00 64 1000.4
20260505093925 56 29 9.0 14.0 0.00 0.00 0.00 66 1000.3
20260505092925 57 32 8.0 12.0 0.00 0.00 0.00 68 1000.1
20260505091924 58 31 8.0 15.0 0.00 0.00 0.00 67 1000.1
20260505090925 58 34 7.0 12.0 0.00 0.00 0.00 67 1000.1
20260505085924 59 32 7.0 14.0 0.00 0.00 0.00 70 999.6
20260505084925 60 20 7.0 17.0 0.00 0.00 0.00 71 999.6